Wind_Speed
66 61 59 61 65 68 74 83 90 92 89 87 88 88 87 84 81 81 81 82 83 86 87 83 75 69 67 67 69 69 70 71 70 71 72 70 69 71 73 73 74 74 74 73 73 73 72 70 68 68 67 66
67 62 58 57 60 64 69 76 85 92 92 89 88 89 89 88 85 84 84 84 85 86 88 90 88 85 80 74 72 71 70 70 70 69 70 72 70 69 72 73 72 72 73 75 75 74 74 74 72 70 69 68
67 62 57 55 56 59 65 71 77 86 92 92 89 89 90 90 89 88 87 87 86 87 88 89 89 91 88 80 78 80 79 76 73 71 69 70 70 69 70 72 73 74 74 76 77 77 75 76 76 73 71 71
69 62 57 54 54 55 59 66 72 79 87 93 92 90 90 92 92 92 91 89 85 84 86 84 79 78 80 78 78 81 82 82 79 77 74 71 70 69 68 70 73 74 75 76 77 78 77 76 78 78 74 72
70 64 57 53 52 52 54 60 68 74 80 87 93 93 92 92 94 96 96 93 88 83 80 77 70 69 76 79 79 80 81 81 80 79 78 76 73 70 67 65 69 73 74 75 75 76 76 75 76 79 80 76
71 66 58 53 51 51 51 54 61 69 75 81 88 92 93 94 95 97 99 99 95 89 84 79 72 71 78 82 80 79 80 81 80 79 79 78 76 75 72 65 62 67 72 74 74 74 74 74 74 76 80 82
72 68 60 54 51 50 50 51 55 63 71 77 82 88 92 94 96 98 100 100 98 94 91 87 80 75 79 83 82 79 78 80 81 81 80 78 77 75 75 72 64 62 65 69 72 74 75 75 77 76 76 78
71 69 63 55 51 50 49 49 51 57 65 72 78 83 89 93 95 98 100 101 100 96 93 92 89 82 78 80 82 82 80 81 82 81 80 79 77 74 73 74 71 64 61 62 65 70 73 75 76 78 76 73
71 69 65 57 52 49 48 48 49 53 58 66 73 79 85 90 93 96 99 101 102 102 97 94 96 92 83 80 80 80 81 83 83 80 76 76 76 74 72 72 72 70 65 61 61 62 66 70 73 75 77 74
70 70 66 59 53 49 49 48 48 49 54 60 67 74 80 86 91 94 97 100 102 106 104 97 96 97 91 85 83 81 81 83 84 81 76 73 73 72 72 72 71 70 69 67 65 63 62 65 69 71 73 74
70 71 69 63 55 50 48 48 47 47 49 55 61 68 74 81 87 92 95 98 100 104 108 105 99 99 96 88 86 85 83 82 85 85 81 77 75 73 70 70 72 69 66 68 70 69 68 66 67 68 70 72
71 72 72 67 60 53 48 47 47 47 47 50 55 62 68 75 82 89 93 95 98 101 105 109 106 102 100 94 89 87 86 83 84 87 84 79 77 76 72 66 67 69 66 66 70 73 73 72 70 68 70 71
72 72 72 70 65 58 51 47 47 47 47 47 50 56 63 69 75 82 90 93 97 99 102 106 109 107 105 101 95 91 90 86 84 85 85 82 78 76 75 68 62 65 68 67 66 68 69 69 67 65 66 69
72 72 71 70 67 61 55 50 48 47 47 47 48 51 57 63 69 75 83 90 95 98 100 103 107 108 108 107 103 99 96 93 88 84 83 83 81 78 77 74 68 63 65 67 65 64 64 63 62 61 60 62
70 71 71 70 67 62 57 52 50 48 47 48 48 49 52 57 64 70 75 83 91 96 98 100 104 107 108 108 107 105 102 100 95 90 85 82 81 82 81 80 77 71 66 67 68 65 64 64 64 63 62 59
68 69 70 70 68 64 58 53 50 49 48 48 49 49 50 53 59 65 70 75 83 91 96 99 101 104 107 108 107 107 107 105 103 99 94 88 82 81 83 83 83 79 73 69 70 70 67 68 68 67 65 63
67 67 69 70 69 66 60 55 50 48 47 47 48 49 49 51 55 60 66 71 75 83 91 97 100 101 104 107 107 107 108 107 106 104 101 97 92 85 83 83 84 84 80 75 73 73 73 71 71 70 67 66
66 67 68 69 70 68 64 58 52 48 47 46 47 49 49 50 53 57 61 66 70 76 84 91 97 100 101 103 106 107 108 108 107 106 104 101 99 95 89 85 84 86 86 83 78 77 78 76 74 74 71 68
66 67 68 69 70 69 67 62 55 50 48 46 45 47 49 50 52 55 58 62 66 71 77 84 91 97 100 101 103 105 106 107 107 106 105 104 101 100 97 92 88 86 87 87 85 80 80 82 80 78 77 73
66 67 67 68 70 70 69 66 59 53 50 48 45 44 46 50 52 54 56 59 62 66 71 78 85 91 96 100 102 103 104 105 106 106 105 105 104 102 101 99 96 92 87 86 88 85 82 83 82 81 81 80
66 66 67 68 69 70 69 67 63 56 52 49 46 43 43 46 50 54 55 56 58 61 65 70 78 85 90 95 99 101 103 104 104 105 104 104 105 104 103 101 101 100 95 89 88 88 86 85 84 82 79 79
66 66 67 68 69 69 69 67 64 58 53 50 47 43 40 40 45 51 54 54 55 56 59 63 69 78 84 89 93 98 101 103 104 104 103 102 103 104 103 103 102 103 102 98 92 90 89 88 87 86 82 78
66 66 67 68 68 69 69 68 65 60 54 50 46 42 38 36 38 45 49 51 52 52 54 57 61 68 77 84 88 92 96 100 102 103 103 101 100 101 102 102 102 102 104 103 100 96 93 90 88 86 86 83
65 65 66 67 68 68 68 67 65 61 56 50 46 41 37 34 33 38 43 46 47 48 49 52 56 59 66 75 83 88 91 95 98 101 102 102 100 99 100 100 101 101 102 102 102 100 97 95 92 88 85 85
64 64 64 65 66 66 66 65 64 61 57 51 46 41 35 32 30 32 35 38 41 43 44 46 49 53 55 62 72 82 88 91 94 97 99 101 101 100 99 99 99 99 99 100 100 100 98 96 95 93 88 86
63 63 63 63 64 64 65 63 62 59 55 51 46 40 35 30 27 28 30 32 34 37 39 40 42 47 50 52 57 67 79 86 90 92 95 98 99 100 99 98 98 99 98 98 98 98 97 95 93 93 91 89
62 62 62 62 62 63 63 62 60 57 53 49 45 40 34 29 26 25 27 29 31 33 34 36 38 41 46 48 49 53 63 76 85 90 92 94 96 98 99 98 98 98 98 97 97 97 95 94 92 91 91 90
61 61 61 61 61 61 61 60 58 56 51 47 44 40 35 30 27 25 26 28 30 31 32 34 35 38 41 45 47 48 51 59 72 84 90 93 94 96 97 97 97 97 97 97 96 97 96 95 92 90 90 89
60 60 60 61 61 60 60 60 58 54 50 46 42 39 35 31 28 27 27 28 29 30 31 32 33 34 37 41 44 46 47 49 56 68 81 90 93 94 95 96 97 97 97 97 96 96 97 97 95 92 91 89
60 59 59 59 59 59 60 60 57 53 49 46 42 38 35 32 29 28 28 28 28 28 29 29 31 32 33 37 40 43 44 45 47 53 64 78 88 94 95 95 96 96 96 97 97 96 96 97 98 95 92 91
59 58 58 58 58 58 58 58 56 53 49 45 42 38 35 32 30 29 28 28 28 28 28 28 28 30 31 33 36 39 42 44 45 46 50 59 73 87 94 96 96 96 96 97 97 97 96 97 98 97 95 94
Wind_Direction
316 303 290 280 271 263 256 250 244 238 236 236 233 229 223 220 220 221 223 227 230 234 236 236 233 233 235 236 236 238 242 244 245 246 247 246 246 244 242 241 239 239 239 238 237 236 235 235 237 237 235 232
321 309 296 285 275 267 259 254 248 242 238 236 234 231 227 222 219 220 221 224 228 231 234 236 236 239 242 240 238 239 241 243 243 242 243 243 243 242 241 241 240 239 239 238 237 237 235 234 235 236 237 235
326 315 301 291 281 271 263 257 252 247 241 238 236 233 230 225 220 219 220 221 223 227 231 234 236 239 241 240 241 243 244 244 243 241 239 238 239 239 238 238 239 239 239 239 238 238 237 235 234 234 235 235
331 321 307 296 288 279 268 259 254 251 245 241 238 235 231 228 223 220 219 219 219 221 225 228 231 232 234 237 241 243 244 244 244 243 240 236 235 235 234 235 237 239 240 240 238 237 237 237 236 235 235 235
334 327 312 300 293 286 276 264 256 252 249 244 240 237 234 230 226 223 222 222 220 219 219 219 222 226 232 236 238 239 240 241 241 240 240 237 235 233 233 233 234 237 238 239 238 236 235 236 236 236 237 236
337 332 319 305 297 292 284 272 262 254 250 246 243 239 237 234 230 226 225 226 226 225 223 221 220 224 232 235 234 234 234 236 237 235 235 234 234 233 233 232 230 232 234 235 236 234 233 234 235 235 236 237
338 335 326 311 301 296 290 280 269 259 253 248 244 241 238 236 233 231 228 227 229 229 229 227 223 221 226 230 229 229 229 230 230 230 230 230 230 230 231 232 230 228 229 231 232 232 232 233 234 235 235 236
339 337 332 318 305 299 296 287 276 265 257 251 246 242 239 237 235 233 231 229 229 230 230 229 228 224 221 223 225 225 225 226 225 224 225 226 227 226 227 229 230 229 227 228 230 231 232 233 233 234 235 235
339 339 335 325 311 302 298 293 284 272 263 256 250 245 240 238 236 234 233 232 230 231 231 230 230 230 226 222 221 221 222 223 222 220 221 223 224 224 224 225 228 229 229 228 229 230 231 232 232 233 233 234
340 340 338 331 318 306 299 296 291 281 270 261 255 250 244 239 236 235 234 234 232 232 234 233 231 232 232 229 226 224 222 222 222 221 221 222 222 222 222 223 225 228 229 230 230 232 232 232 232 232 232 232
340 340 340 336 326 311 301 297 295 289 279 268 260 254 249 243 239 236 234 233 234 233 234 236 234 232 234 234 232 230 228 225 224 225 225 226 225 224 223 224 225 226 229 232 233 235 236 236 235 234 233 232
341 341 340 338 332 320 307 299 296 293 287 277 267 259 253 248 243 238 235 233 233 233 234 236 237 235 236 238 236 234 233 232 229 228 228 227 227 226 224 224 226 227 227 230 234 237 239 240 240 239 237 235
341 342 341 339 335 327 315 304 298 295 291 285 275 266 258 252 247 242 238 235 233 232 232 234 237 237 237 239 240 237 236 236 234 232 230 228 228 228 226 223 225 228 228 228 230 234 237 239 239 239 239 238
341 342 341 339 336 330 321 311 303 297 293 288 282 273 264 257 251 246 241 238 235 233 232 232 234 237 238 239 240 241 239 237 237 235 234 232 230 230 229 226 223 225 228 228 226 227 230 231 230 230 232 234
340 342 341 340 337 332 325 315 308 302 296 291 285 278 270 262 255 250 245 241 238 235 233 232 232 233 236 238 239 240 240 239 238 236 236 235 233 231 232 231 227 224 225 226 223 221 223 223 222 223 224 227
339 341 342 341 339 336 329 320 312 306 301 295 288 282 274 267 259 254 249 244 240 237 236 234 232 232 233 235 237 238 239 240 240 238 237 237 235 232 231 232 231 227 224 223 220 218 218 219 219 220 221 222
338 340 342 342 341 339 334 327 318 312 306 299 292 285 277 269 262 257 252 247 243 239 237 235 234 233 232 232 234 236 238 239 240 240 239 238 237 234 231 229 230 230 226 221 220 219 218 217 218 218 221 222
339 340 341 343 342 341 339 333 325 318 312 305 296 288 280 271 264 258 254 250 245 241 238 236 235 234 233 232 232 233 235 237 238 239 239 238 238 236 233 230 229 230 228 224 221 221 220 218 217 217 220 222
339 340 341 343 343 343 341 339 332 325 319 312 302 291 282 274 265 259 255 251 248 244 240 237 236 234 234 233 233 232 233 234 236 237 238 238 238 237 235 234 231 228 227 225 223 221 220 220 219 219 220 222
339 340 341 343 344 344 343 342 338 332 326 320 311 298 286 276 267 260 255 252 249 246 243 240 237 236 234 233 233 233 233 233 234 235 236 237 237 237 236 235 234 231 227 225 223 221 219 220 221 222 223 225
339 340 341 343 344 344 344 343 341 337 331 326 319 307 293 280 270 262 256 253 251 248 245 242 239 237 236 234 233 233 233 233 233 234 234 235 237 237 236 235 234 234 232 229 226 224 223 222 223 225 227 229
339 340 342 344 344 344 345 345 343 340 336 331 326 316 302 287 273 265 258 255 253 251 248 245 242 239 237 236 235 234 233 233 233 234 234 234 235 236 236 236 235 234 234 233 231 229 228 228 228 229 229 230
340 341 342 344 345 344 345 346 345 342 339 335 331 323 311 296 279 268 260 256 255 255 252 248 245 242 240 238 236 235 234 233 233 233 234 234 234 235 235 236 236 235 234 234 234 233 232 232 232 232 231 230
340 341 342 344 345 345 345 345 345 344 342 339 335 329 319 305 288 274 264 258 256 258 258 255 251 247 244 240 238 237 236 235 234 233 233 234 234 234 234 235 236 235 235 235 235 235 235 234 234 234 233 231
340 341 342 344 345 345 345 345 345 344 343 341 338 334 325 312 297 282 271 263 260 262 264 263 258 253 250 247 243 239 237 236 236 235 234 234 234 234 234 234 235 235 235 235 235 235 235 236 235 235 235 234
340 341 342 344 345 345 345 346 345 344 342 341 339 336 329 318 304 290 278 270 266 267 269 269 265 258 254 252 249 244 240 238 237 237 236 235 234 234 234 234 234 235 235 235 235 235 235 235 235 235 234 234
339 340 341 343 345 345 345 346 346 345 343 341 339 336 331 321 309 296 285 278 275 274 273 271 268 262 256 253 252 250 245 241 238 237 237 236 236 235 234 233 234 234 235 234 234 234 234 234 233 233 233 232
338 339 340 342 344 345 345 346 346 345 343 341 338 336 331 323 312 301 291 286 282 280 277 274 271 266 260 255 254 252 250 246 242 239 237 237 237 236 235 234 233 234 234 234 233 233 233 233 232 231 231 231
337 338 339 341 343 345 345 345 347 346 344 341 338 336 331 324 315 305 297 292 288 285 280 277 274 269 263 258 255 254 253 250 247 243 239 237 237 237 236 235 234 233 234 234 233 232 231 232 231 230 230 229
336 337 338 340 342 344 344 345 346 346 344 342 339 336 332 326 317 309 303 298 293 290 286 280 277 273 268 263 258 256 255 253 251 248 244 240 238 237 237 236 235 234 234 234 233 232 231 230 231 230 229 229
335 336 337 338 341 342 343 344 345 346 345 342 339 337 334 328 320 312 307 303 300 296 293 288 282 277 273 269 263 260 257 255 254 252 249 244 240 238 237 237 236 236 235 234 234 233 231 230 229 229 229 228
Height
5639 5634 5631 5627 5625 5624 5624 5625 5628 5633 5638 5642 5646 5649 5650 5651 5655 5660 5665 5669 5673 5676 5678 5682 5682 5683 5686 5688 5689 5691 5692 5694 5696 5697 5700 5703 5706 5709 5712 5716 5719 5722 5726 5729 5733 5736 5740 5744 5747 5750 5753 5756
5631 5624 5621 5618 5615 5613 5613 5614 5616 5620 5626 5630 5634 5637 5640 5641 5643 5647 5651 5656 5660 5664 5667 5670 5672 5673 5676 5679 5681 5682 5684 5687 5688 5690 5692 5695 5698 5701 5704 5707 5711 5714 5717 5720 5724 5728 5732 5735 5739 5743 5746 5749
5625 5617 5612 5609 5606 5604 5603 5603 5604 5607 5612 5619 5623 5626 5629 5631 5633 5635 5638 5642 5647 5651 5656 5659 5662 5664 5667 5670 5670 5672 5675 5679 5681 5683 5685 5686 5689 5693 5696 5699 5702 5706 5709 5712 5717 5721 5724 5728 5731 5734 5737 5741
5619 5611 5605 5601 5598 5596 5594 5594 5594 5595 5599 5606 5612 5616 5620 5622 5624 5624 5626 5629 5634 5638 5643 5648 5651 5654 5656 5659 5660 5663 5666 5670 5674 5676 5678 5679 5682 5685 5688 5691 5694 5698 5701 5704 5708 5713 5717 5720 5722 5726 5730 5733
5612 5605 5599 5594 5591 5588 5586 5585 5584 5584 5587 5592 5599 5605 5610 5614 5616 5616 5616 5617 5621 5625 5630 5634 5639 5641 5644 5647 5650 5654 5658 5662 5666 5668 5670 5672 5675 5678 5681 5683 5686 5689 5693 5696 5700 5704 5708 5711 5714 5718 5722 5725
5607 5599 5593 5587 5584 5581 5578 5576 5575 5575 5576 5579 5584 5591 5598 5603 5607 5609 5608 5607 5609 5613 5617 5622 5626 5628 5631 5637 5642 5646 5649 5654 5658 5660 5661 5664 5667 5671 5674 5676 5678 5681 5684 5688 5691 5696 5699 5702 5706 5710 5713 5717
5602 5594 5587 5582 5577 5574 5571 5568 5567 5566 5566 5568 5571 5576 5583 5590 5596 5599 5601 5600 5600 5602 5605 5610 5614 5617 5621 5627 5633 5637 5641 5644 5648 5651 5653 5655 5658 5662 5666 5669 5671 5673 5676 5679 5683 5687 5689 5693 5697 5701 5704 5709
5598 5590 5582 5576 5571 5568 5564 5561 5559 5557 5557 5558 5560 5563 5568 5574 5582 5588 5591 5593 5593 5594 5596 5599 5602 5608 5612 5616 5622 5627 5631 5635 5638 5641 5644 5647 5650 5653 5657 5660 5663 5666 5669 5672 5674 5678 5680 5684 5688 5692 5697 5701
5595 5587 5579 5571 5566 5562 5558 5555 5552 5549 5549 5549 5550 5552 5556 5560 5566 5573 5579 5583 5586 5586 5588 5591 5592 5596 5602 5607 5611 5616 5621 5625 5628 5632 5635 5638 5641 5645 5648 5652 5655 5659 5662 5664 5666 5669 5672 5676 5680 5684 5689 5694
5591 5583 5575 5568 5561 5556 5552 5549 5546 5543 5541 5540 5541 5542 5545 5549 5552 5558 5565 5571 5575 5577 5578 5582 5584 5585 5590 5597 5602 5606 5610 5614 5618 5622 5626 5629 5632 5636 5639 5643 5647 5651 5654 5657 5659 5661 5664 5667 5671 5676 5681 5686
5586 5578 5571 5564 5557 5551 5547 5543 5540 5537 5535 5533 5532 5533 5535 5538 5541 5545 5550 5556 5562 5567 5568 5570 5575 5577 5579 5585 5592 5596 5600 5604 5609 5613 5617 5621 5624 5627 5631 5634 5638 5642 5646 5649 5652 5654 5657 5660 5664 5668 5672 5677
5580 5572 5564 5558 5552 5546 5541 5537 5534 5531 5528 5526 5524 5524 5524 5527 5531 5534 5539 5543 5548 5554 5558 5559 5563 5567 5570 5573 5580 5586 5591 5595 5599 5604 5609 5613 5616 5619 5623 5626 5630 5634 5637 5641 5644 5647 5650 5653 5657 5660 5664 5668
5574 5567 5559 5551 5545 5540 5535 5531 5528 5525 5522 5520 5517 5516 5515 5517 5520 5523 5528 5532 5535 5540 5546 5550 5552 5556 5560 5563 5568 5575 5580 5586 5590 5594 5599 5604 5608 5611 5615 5618 5622 5625 5628 5632 5636 5639 5643 5646 5650 5654 5657 5660
5570 5563 5555 5548 5540 5534 5529 5524 5521 5518 5515 5512 5510 5509 5507 5508 5509 5512 5517 5520 5524 5528 5533 5538 5542 5546 5550 5554 5558 5564 5570 5575 5580 5585 5589 5595 5600 5603 5607 5610 5614 5617 5620 5624 5629 5632 5636 5640 5644 5647 5650 5653
5567 5560 5552 5545 5537 5529 5523 5518 5514 5511 5508 5505 5503 5501 5500 5499 5499 5501 5505 5509 5513 5518 5522 5526 5531 5535 5540 5544 5549 5553 5558 5562 5568 5573 5578 5584 5590 5595 5598 5602 5606 5610 5613 5615 5620 5625 5628 5632 5636 5640 5643 5647
5566 5558 5550 5542 5534 5526 5518 5512 5507 5503 5500 5496 5494 5493 5492 5491 5491 5491 5493 5497 5502 5507 5512 5515 5519 5524 5529 5534 5539 5542 5545 5549 5555 5561 5567 5572 5579 5585 5590 5593 5597 5602 5606 5608 5611 5616 5620 5624 5628 5632 5636 5639
5562 5555 5547 5539 5530 5522 5514 5507 5501 5497 5492 5488 5485 5483 5483 5482 5482 5482 5483 5485 5491 5496 5499 5503 5508 5513 5518 5522 5527 5531 5535 5539 5543 5549 5556 5562 5567 5573 5579 5584 5588 5593 5598 5601 5603 5607 5612 5616 5620 5624 5628 5632
5557 5550 5542 5535 5526 5518 5510 5502 5495 5490 5485 5481 5477 5473 5472 5472 5472 5473 5473 5475 5478 5482 5485 5490 5495 5501 5506 5510 5515 5520 5525 5529 5533 5538 5544 5550 5557 5562 5567 5573 5579 5584 5589 5593 5596 5600 5604 5608 5612 5616 5621 5624
5552 5545 5538 5530 5522 5513 5505 5497 5489 5483 5478 5473 5469 5465 5463 5462 5462 5463 5464 5466 5467 5469 5473 5478 5483 5488 5493 5499 5504 5508 5512 5517 5522 5527 5531 5537 5545 5551 5557 5562 5568 5574 5579 5584 5589 5592 5596 5601 5604 5608 5613 5617
5547 5540 5533 5525 5517 5508 5499 5491 5483 5477 5471 5466 5462 5458 5454 5452 5452 5453 5455 5456 5457 5459 5462 5466 5471 5476 5481 5486 5492 5496 5501 5505 5510 5515 5520 5525 5531 5538 5545 5552 5558 5563 5568 5574 5580 5585 5589 5593 5597 5601 5605 5609
5543 5536 5528 5520 5511 5503 5494 5486 5478 5471 5465 5460 5455 5450 5447 5444 5443 5444 5445 5447 5448 5450 5452 5455 5459 5464 5469 5474 5480 5485 5490 5494 5498 5503 5509 5514 5519 5525 5532 5540 5547 5552 5558 5564 5570 5575 5580 5585 5589 5593 5597 5601
5538 5530 5522 5514 5506 5498 5490 5482 5474 5467 5461 5455 5449 5444 5440 5438 5436 5435 5437 5439 5440 5441 5444 5446 5449 5453 5457 5463 5468 5473 5478 5483 5487 5493 5498 5503 5508 5514 5520 5526 5534 5541 5547 5553 5560 5565 5571 5575 5580 5585 5590 5594
5532 5524 5516 5508 5501 5493 5485 5478 5470 5463 5457 5451 5445 5439 5435 5432 5430 5428 5429 5432 5433 5435 5436 5438 5441 5444 5447 5451 5457 5462 5467 5471 5476 5482 5487 5492 5498 5503 5508 5514 5520 5527 5535 5543 5550 5555 5560 5566 5571 5577 5581 5586
5528 5521 5513 5505 5497 5489 5480 5472 5465 5459 5453 5448 5441 5436 5432 5428 5426 5423 5423 5426 5428 5429 5431 5432 5435 5437 5439 5442 5446 5451 5456 5460 5465 5471 5476 5482 5487 5492 5497 5503 5508 5515 5522 5530 5538 5544 5551 5556 5561 5566 5571 5575
5525 5518 5511 5503 5494 5487 5478 5469 5461 5454 5449 5444 5439 5433 5429 5426 5423 5421 5420 5422 5424 5425 5427 5428 5429 5431 5433 5436 5438 5441 5446 5451 5456 5461 5465 5470 5476 5482 5487 5492 5497 5503 5510 5518 5525 5532 5539 5546 5550 5555 5560 5564
5520 5514 5507 5500 5493 5486 5477 5468 5460 5453 5446 5440 5436 5432 5428 5425 5422 5420 5419 5420 5421 5422 5423 5423 5424 5425 5427 5429 5431 5433 5437 5441 5446 5450 5454 5459 5465 5470 5476 5482 5486 5491 5498 5506 5512 5519 5527 5534 5538 5543 5548 5552
5516 5510 5504 5497 5491 5484 5476 5467 5459 5452 5445 5439 5434 5430 5427 5424 5422 5420 5419 5418 5419 5419 5419 5419 5419 5419 5420 5422 5424 5426 5428 5431 5435 5439 5443 5448 5453 5458 5464 5471 5476 5480 5486 5493 5501 5508 5515 5520 5525 5531 5535 5540
5512 5506 5501 5494 5488 5481 5474 5467 5458 5450 5443 5437 5433 5429 5426 5423 5421 5419 5418 5417 5416 5415 5415 5414 5414 5414 5415 5416 5418 5419 5421 5423 5425 5429 5433 5438 5442 5447 5453 5460 5466 5470 5475 5481 5489 5495 5501 5507 5513 5519 5522 5529
5509 5503 5497 5490 5483 5477 5472 5465 5457 5449 5443 5437 5432 5427 5424 5422 5419 5418 5416 5415 5413 5412 5411 5410 5410 5410 5410 5411 5411 5413 5415 5416 5418 5420 5424 5428 5433 5437 5443 5449 5455 5460 5465 5469 5475 5481 5489 5496 5500 5506 5513 5520
5506 5500 5494 5488 5480 5474 5468 5462 5455 5448 5441 5436 5430 5426 5422 5419 5417 5415 5413 5412 5410 5409 5408 5407 5406 5406 5406 5406 5406 5407 5409 5410 5411 5413 5415 5419 5424 5428 5432 5438 5444 5449 5453 5457 5462 5468 5476 5482 5487 5497 5504 5509
5503 5497 5491 5485 5479 5472 5466 5459 5452 5445 5439 5434 5429 5424 5420 5417 5414 5412 5410 5408 5407 5406 5405 5403 5403 5402 5402 5402 5402 5402 5403 5404 5405 5406 5408 5410 5414 5418 5422 5428 5433 5438 5442 5446 5451 5457 5462 5469 5476 5486 5492 5496